Theta_e
299 300 300 300 300 300 300 300 300 300 300 300 300 300 300 300 301 301 303 306 306 308 309 310 314 321 321 326 325 321 317 318 321 323 323 325 322 328 328 328 328 329 329 330 331
300 300 300 300 300 300 300 300 300 300 300 300 300 300 300 300 301 302 303 305 305 306 307 308 311 312 319 319 328 320 316 318 318 321 323 323 322 323 325 324 325 327 327 329 330
301 300 300 300 300 300 300 300 300 300 299 299 300 300 300 300 301 304 311 309 307 306 308 307 309 311 322 324 326 327 324 318 318 320 322 322 322 323 322 322 325 326 326 327 328
300 300 300 300 300 300 300 300 300 301 301 302 300 299 300 301 300 309 310 307 307 307 306 312 312 315 314 324 327 328 327 326 324 322 324 322 323 323 323 323 324 325 325 326 326
300 300 300 300 299 300 300 302 305 305 305 306 304 301 302 304 304 304 303 302 303 303 306 314 309 314 311 313 321 327 326 328 329 329 329 328 329 328 328 328 327 326 325 326 327
300 300 300 300 300 300 303 305 306 304 306 307 306 304 305 304 305 307 307 306 307 306 303 310 313 311 312 311 316 315 318 323 327 326 324 324 324 324 325 326 327 327 326 326 326
300 300 300 300 300 301 306 305 307 305 306 307 305 305 306 304 307 310 311 310 308 309 305 307 312 313 311 312 313 313 313 313 314 317 320 323 323 323 324 324 324 324 324 325 325
300 300 300 300 300 302 304 305 305 307 307 305 304 307 306 308 308 309 309 309 308 307 305 304 309 309 310 312 313 313 311 314 316 314 316 319 322 323 324 324 323 323 324 324 326
300 300 300 301 301 302 303 305 305 304 308 305 306 308 307 307 308 308 308 308 309 309 307 306 308 308 310 310 310 312 316 314 315 315 317 317 320 320 322 323 322 322 323 323 324
301 301 300 301 301 303 303 304 304 304 306 306 307 307 307 308 307 308 308 308 307 308 307 306 307 305 305 309 313 312 315 316 317 316 316 316 318 318 320 321 321 322 322 323 323
300 301 301 302 302 303 303 303 305 305 305 306 306 305 306 307 307 308 308 307 306 307 305 306 304 305 308 309 311 311 312 314 315 316 317 317 318 318 318 318 319 320 320 321 321
300 300 301 303 302 303 304 307 307 306 306 306 306 306 307 307 307 307 308 306 306 306 304 303 303 306 307 308 309 309 310 310 311 312 313 313 313 313 313 314 317 318 319 319 321
301 300 301 303 303 304 305 307 307 307 305 306 307 307 308 306 307 307 307 306 305 305 304 303 304 306 306 307 307 308 309 310 311 312 312 312 314 315 314 313 315 315 316 317 318
301 301 301 303 306 306 305 307 308 307 302 305 307 307 307 306 307 306 309 307 306 305 304 303 303 305 305 306 307 307 309 311 312 312 312 312 314 314 314 314 313 314 315 316 317
301 301 301 303 306 307 307 308 308 307 299 305 306 306 307 306 306 307 309 309 307 306 306 307 304 304 305 305 307 307 307 308 311 310 311 311 311 313 312 312 311 312 313 314 315
302 302 302 303 308 308 308 308 307 302 300 307 306 306 306 307 306 307 307 308 310 311 310 310 308 304 304 305 306 307 308 307 307 308 310 311 311 312 311 311 312 311 313 315 315
304 305 303 305 308 308 308 307 302 302 305 307 307 306 306 306 306 307 307 307 309 311 312 311 308 308 305 305 305 305 304 306 308 308 308 310 311 312 310 311 312 313 314 316 317
305 306 305 307 309 309 308 300 299 306 306 307 307 306 306 305 305 306 306 308 310 311 312 314 311 306 308 305 304 304 303 305 312 312 309 310 313 312 312 312 313 313 314 316 317
304 310 309 309 309 309 307 301 304 306 307 307 307 307 306 305 306 305 305 308 310 310 312 313 312 310 310 310 307 307 304 306 305 307 306 309 310 311 312 313 312 312 314 316 318
304 310 310 310 309 308 303 306 304 306 307 307 308 307 306 305 306 305 306 308 309 309 308 310 310 310 310 311 309 307 306 305 302 307 310 310 311 312 312 312 314 313 312 319 322
305 310 309 309 308 307 301 303 305 307 307 308 308 308 306 306 306 306 308 308 309 309 309 308 308 310 308 308 306 307 307 307 303 304 310 312 311 310 312 312 312 313 324 327 325
305 305 308 309 305 297 299 304 305 307 307 307 307 306 306 306 306 307 308 308 308 308 309 309 308 310 309 307 307 307 307 308 309 309 306 307 308 309 310 311 312 314 319 331 329
306 306 307 305 297 296 300 304 305 307 307 308 308 307 306 306 308 307 308 308 307 308 309 309 308 309 307 309 309 309 310 308 307 307 309 309 308 309 310 312 313 314 321 332 335
305 302 305 304 303 302 303 304 306 306 307 307 306 306 307 307 306 308 308 307 307 308 308 309 308 309 306 308 308 309 310 310 312 312 309 310 310 311 311 312 313 314 318 332 335
301 302 304 299 299 299 302 304 306 306 307 307 307 307 309 310 308 308 308 308 308 308 307 306 310 308 308 309 310 310 310 310 312 312 314 313 314 313 312 312 313 316 326 332 335
299 299 301 300 301 301 301 304 305 305 305 306 307 307 308 308 307 308 308 308 309 308 307 308 310 309 309 309 310 311 310 310 311 311 312 313 314 313 312 313 320 323 327 332 335
302 298 299 300 299 300 299 303 304 304 305 306 306 307 306 307 307 307 306 306 306 308 309 309 310 307 307 308 309 309 309 311 310 311 312 313 312 312 317 320 320 322 329 331 334
Wind_Speed
14 14 14 14 15 15 15 16 16 16 16 17 18 19 19 21 23 26 28 24 22 21 17 22 10 8 13 13 13 7 2 5 7 8 5 4 2 7 4 5 7 2 7 14 10
15 15 16 16 17 17 17 17 18 19 19 19 20 21 21 22 25 25 20 23 25 24 24 22 21 19 9 12 11 7 5 10 6 8 4 5 5 6 4 4 2 9 5 9 9
17 17 18 19 19 19 18 18 19 19 19 20 20 20 21 22 20 3 1 5 5 8 14 24 22 15 18 10 13 9 10 13 7 15 14 10 12 10 5 7 12 12 4 11 15
17 18 19 19 20 20 19 20 20 19 19 20 20 21 20 16 5 4 9 12 20 19 14 14 19 8 9 12 15 5 16 19 8 14 5 7 17 17 18 18 28 30 33 31 27
18 18 19 19 19 18 17 16 18 20 21 22 20 18 18 14 15 11 11 19 19 18 11 8 21 10 7 6 9 14 10 16 28 21 19 15 21 16 29 35 38 40 39 38 37
19 19 19 20 19 17 14 15 17 18 16 17 15 16 14 5 13 20 20 17 19 19 14 9 8 21 8 7 17 3 12 17 17 17 11 7 17 11 13 28 31 29 37 39 41
19 19 19 20 17 13 11 13 16 21 16 13 16 15 15 12 22 9 10 16 24 18 19 14 13 10 4 3 12 11 6 4 8 10 11 15 22 30 31 30 35 36 39 40 42
23 22 22 22 19 16 14 16 17 16 12 19 18 10 10 18 19 18 19 23 23 24 13 16 11 14 12 10 5 4 5 13 13 8 6 14 29 25 20 28 33 35 34 35 38
24 23 22 22 19 18 17 19 20 17 15 22 10 8 8 18 20 21 19 19 18 20 18 9 10 10 6 4 3 4 16 9 6 9 11 12 31 11 23 24 29 29 35 35 37
24 22 22 20 19 19 19 21 17 8 11 12 6 6 9 20 25 21 17 13 11 19 6 8 8 3 3 6 16 10 6 2 5 5 14 11 30 13 19 19 26 30 35 37 38
24 22 20 18 15 17 19 23 16 4 16 8 18 16 22 24 21 22 19 12 5 3 3 5 4 13 11 10 9 5 3 1 1 2 2 16 21 18 16 22 21 30 33 36 39
23 21 19 14 10 11 13 8 8 10 12 14 14 15 15 18 12 20 16 3 2 4 1 4 9 7 4 6 9 10 2 4 5 9 4 6 12 13 10 13 23 27 30 33 39
22 21 17 11 8 9 6 8 11 11 4 14 10 11 10 21 11 16 10 3 4 3 4 7 7 3 5 5 5 4 5 3 6 9 10 9 16 15 12 16 27 30 36 38 38
23 21 15 7 5 13 2 12 14 5 3 5 6 4 18 19 4 25 13 5 3 6 5 6 7 7 7 5 11 11 4 2 3 3 7 3 10 16 15 20 14 18 32 36 37
24 20 14 7 9 12 13 17 7 3 4 12 4 9 29 4 14 6 6 3 7 6 1 10 6 3 4 6 7 6 11 8 4 4 4 6 4 14 4 13 9 14 29 37 48
25 20 13 4 7 14 17 17 4 5 4 7 8 11 16 13 14 8 14 9 5 4 7 12 15 4 7 8 5 4 5 4 3 3 6 7 8 22 10 18 14 8 24 33 29
25 15 5 3 5 14 18 3 4 4 4 6 9 9 15 5 11 7 11 6 4 4 3 9 10 13 6 4 2 4 5 1 1 3 9 14 9 21 3 7 6 8 17 18 18
20 9 6 3 5 12 16 4 6 2 5 7 7 15 4 7 7 7 6 6 2 6 5 5 3 7 8 10 7 6 8 4 6 5 4 7 12 8 13 15 19 18 23 21 22
15 5 5 2 5 11 8 4 5 3 4 6 11 3 4 5 4 6 5 3 2 4 5 4 1 5 6 2 10 4 5 9 2 3 1 5 7 9 12 19 8 8 16 24 26
15 4 6 4 6 12 4 2 3 3 7 7 4 2 5 8 6 6 4 3 4 7 2 3 5 5 4 3 11 5 4 4 1 4 5 5 6 7 7 9 5 9 11 28 34
12 2 4 4 9 4 3 4 5 8 9 3 3 6 6 5 4 4 6 6 1 5 5 2 0 4 2 4 5 1 1 2 3 4 3 3 5 6 4 5 7 9 19 28 30
9 2 8 4 4 2 1 4 8 4 2 4 4 5 5 3 5 4 5 4 6 2 5 2 1 3 6 6 4 2 3 2 4 6 7 3 6 5 5 4 6 12 26 24 11
12 4 4 8 2 3 5 5 5 3 4 2 4 3 3 3 5 4 6 6 16 2 3 1 1 3 5 3 4 2 3 4 2 1 5 4 7 5 10 15 18 17 22 10 1
8 4 4 5 3 2 4 4 4 8 8 3 5 7 2 4 7 6 9 8 9 3 14 4 4 5 4 2 2 4 8 9 5 4 7 15 12 21 22 13 17 28 24 6 6
8 2 2 4 3 4 3 4 6 7 3 12 4 3 8 7 14 17 10 6 11 13 5 6 6 6 9 11 10 11 13 14 14 12 9 3 3 13 15 16 16 24 23 8 12
7 5 4 7 12 4 4 3 8 6 5 10 6 13 14 13 15 21 17 12 8 4 2 2 3 2 10 11 13 16 15 17 18 18 17 15 14 16 21 20 14 22 23 15 20
9 4 3 6 4 2 3 4 6 15 10 9 16 17 15 16 21 29 32 34 18 11 5 4 2 1 5 5 7 9 18 19 19 15 11 15 7 15 10 11 13 22 21 16 23
Wind_Direction
2 2 358 355 352 348 346 344 342 337 332 329 327 324 320 316 304 297 284 282 272 256 243 245 229 211 198 207 206 195 141 223 220 170 237 229 284 224 245 276 324 187 340 330 307
5 1 357 354 350 348 346 343 340 335 331 328 323 321 323 325 322 303 282 265 258 259 245 236 236 225 206 208 199 181 189 219 190 212 227 247 268 297 287 355 256 279 282 298 357
1 359 355 352 349 344 340 336 336 334 328 320 318 319 323 332 322 266 35 138 0 326 271 235 227 217 216 207 198 196 220 227 219 224 246 272 285 276 331 313 263 290 279 285 291
359 356 354 350 344 342 340 340 336 331 328 325 322 318 327 345 321 359 272 284 294 304 314 255 216 206 182 206 205 227 226 229 249 236 247 252 282 287 278 260 280 285 289 289 279
353 352 351 348 347 345 345 346 340 335 333 334 330 326 336 321 289 316 274 273 281 290 287 271 218 209 192 204 195 231 215 221 240 248 250 259 258 262 279 278 280 281 283 281 289
352 350 348 348 348 347 351 350 337 325 323 330 331 333 329 289 324 324 309 289 310 299 272 256 220 229 287 224 198 159 225 234 239 246 244 250 269 252 258 269 269 273 276 279 280
354 351 349 348 350 350 349 353 337 339 333 344 342 331 299 305 344 9 18 360 353 331 276 238 236 236 301 297 259 256 284 280 228 237 246 246 268 253 254 259 262 265 265 270 273
356 353 350 349 349 349 340 347 350 348 348 341 339 334 281 350 353 334 327 324 336 351 290 240 222 253 228 276 302 207 162 242 236 183 241 169 258 247 254 243 250 250 255 263 270
354 352 350 349 347 349 343 344 337 321 312 326 333 329 305 343 348 343 321 315 320 329 333 238 239 220 185 185 351 248 237 214 247 216 200 191 253 251 249 256 260 268 271 273 274
352 350 351 350 347 347 340 339 338 320 306 328 310 317 325 323 335 339 341 321 302 325 332 250 232 213 171 168 216 222 231 207 204 197 189 205 246 256 268 256 259 261 266 270 272
351 350 350 349 342 347 340 349 11 337 325 290 287 281 292 324 334 335 341 304 245 50 356 269 199 222 228 239 256 42 71 56 322 263 281 222 249 253 251 258 257 264 263 266 271
351 346 348 350 334 350 357 45 23 325 303 306 291 285 314 330 293 333 337 304 219 180 103 339 261 260 247 203 244 271 264 256 266 260 214 275 277 280 264 258 259 259 261 262 272
349 341 345 353 344 331 3 16 339 327 268 294 311 295 331 345 297 324 309 269 233 191 213 198 254 336 266 231 230 203 218 209 226 293 283 301 283 272 262 236 251 255 262 263 262
346 337 338 351 8 347 358 347 328 298 47 280 335 358 335 336 261 333 331 269 266 242 227 215 254 233 224 232 225 242 178 248 325 166 258 21 289 271 271 264 249 253 259 265 269
342 333 328 318 339 348 338 338 327 152 358 315 332 333 341 359 291 329 357 259 243 253 278 237 197 220 240 212 186 244 200 226 223 253 269 258 310 281 241 266 270 252 256 257 260
339 325 313 287 353 353 340 340 125 48 275 335 325 336 344 323 319 292 321 301 267 264 229 250 254 204 217 241 204 205 180 166 163 150 253 207 194 279 251 248 255 260 253 255 263
345 340 322 159 358 360 339 357 40 105 341 322 318 331 327 288 318 316 321 312 249 324 332 285 235 227 205 245 236 161 103 145 91 175 231 181 184 236 259 306 242 278 287 289 277
352 11 83 116 357 354 341 60 72 257 272 310 309 310 280 348 300 316 299 324 7 293 289 284 180 172 191 200 202 184 163 178 177 183 220 199 226 248 234 255 276 278 277 293 298
359 60 60 28 339 348 345 55 196 249 293 311 320 294 293 319 279 333 300 273 19 29 325 331 141 356 19 351 172 198 167 212 23 282 198 212 279 288 283 286 290 290 308 310 315
356 121 36 27 349 338 64 259 229 237 306 318 263 249 284 314 321 341 297 271 352 5 167 295 294 133 195 97 303 180 183 107 331 206 247 254 258 233 318 286 355 324 302 321 325
356 96 23 0 336 6 115 245 287 305 353 267 267 277 266 309 282 280 270 312 16 342 321 288 179 312 335 202 185 153 293 201 174 185 211 304 266 220 248 70 334 304 331 323 320
1 43 360 331 23 48 57 307 300 288 290 285 280 243 252 294 278 272 258 309 329 349 317 321 1 283 264 290 344 338 257 230 205 253 252 130 278 330 112 63 8 348 335 334 336
347 319 358 352 75 322 306 289 270 286 295 305 293 262 322 300 294 266 271 310 310 297 285 335 308 312 323 350 28 86 315 268 228 158 221 224 242 278 328 0 350 337 343 322 258
352 358 344 51 79 78 318 292 284 316 288 254 260 269 294 270 236 274 273 309 303 233 303 266 216 218 221 293 346 298 296 299 273 256 252 245 288 296 303 337 335 323 330 283 194
6 26 356 306 326 326 239 282 279 325 281 304 295 237 301 288 300 271 277 291 272 297 308 183 229 220 243 260 268 259 268 271 262 256 249 327 292 288 304 309 298 299 318 233 195
3 360 335 291 295 275 265 240 283 315 308 300 249 290 292 282 273 285 283 267 254 279 224 164 265 258 280 263 245 251 259 258 251 246 255 257 269 272 279 285 290 296 313 226 202
342 310 281 267 293 342 251 275 308 309 282 260 290 294 295 280 290 282 274 268 252 247 210 195 238 269 269 264 322 288 246 237 243 238 219 234 224 260 283 291 281 286 300 231 202